カタログに戻る

FENGYUN 1C DEB

LostPO
NORAD 32438·DEBRIS·🇨🇳 China

打ち上げ May 10, 1999 から Taiyuan Satellite Launch Center

Loading…

次のパス (今後24時間)

TLE

古いSource: Space-Track

元期: Jun 9, 2026, 07:57 UTC

1 32438U 99025DBA 26160.33127825  .00099210  00000-0  45019-2 0  9993
2 32438  99.3920 196.6709 0004612 312.6970  47.3870 15.20359252991713

AllMySatでFENGYUN 1C DEBをリアルタイム追跡

Download on the App Store